Date,TemperatureHighF,TemperatureAvgF,TemperatureLowF,DewpointHighF,DewpointAvgF,DewpointLowF,HumidityHigh,HumidityAvg,HumidityLow,PressureMaxIn,PressureMinIn,WindSpeedMaxMPH,WindSpeedAvgMPH,GustSpeedMaxMPH,PrecipitationSumIn
2013-1-1,-200,0,200,-100,-100,-100,67,54,45,0.00,40.00,12,6,21,0.00
2013-1-2,-200,0,200,-100,-100,-100,54,47,34,0.00,40.00,9,3,23,0.00
2013-1-3,-200,0,200,-100,-100,-100,63,50,36,0.00,40.00,9,4,19,0.00
2013-1-4,-200,0,200,-100,-100,-100,60,49,42,0.00,40.00,14,7,29,0.00
2013-1-5,-200,0,200,-100,-100,-100,53,43,28,0.00,40.00,11,5,20,0.00
2013-1-6,-200,0,200,-100,-100,-100,96,57,30,0.00,40.00,11,4,19,0.00
2013-1-7,-200,0,200,-100,-100,-100,77,49,26,0.00,40.00,7,3,20,0.00
2013-1-8,-200,0,200,-100,-100,-100,79,59,34,0.00,40.00,10,3,20,0.00
2013-1-9,-200,0,200,-100,-100,-100,76,67,59,0.00,40.00,11,4,23,0.00
2013-1-10,-200,0,200,-100,-100,-100,60,42,24,0.00,40.00,10,4,22,0.00
2013-1-11,-200,0,200,-100,-100,-100,98,69,46,0.00,40.00,7,3,13,0.00
2013-1-12,-200,0,200,-100,-100,-100,98,98,97,0.00,40.00,4,1,6,0.00
2013-1-13,-200,0,200,-100,-100,-100,98,98,97,0.00,40.00,5,2,10,0.00
2013-1-14,-200,0,200,-100,-100,-100,98,89,51,0.00,40.00,6,3,14,0.00
2013-1-15,-200,0,200,-100,-100,-100,95,71,58,0.00,40.00,5,2,9,0.00
2013-1-16,-200,0,200,-100,-100,-100,98,97,83,0.00,40.00,5,2,11,0.00
2013-1-17,-200,0,200,-100,-100,-100,98,63,40,0.00,40.00,9,3,16,0.00
2013-1-18,-200,0,200,-100,-100,-100,58,39,22,0.00,40.00,11,3,19,0.00
2013-1-19,-200,0,200,-100,-100,-100,64,43,28,0.00,40.00,15,6,23,0.00
2013-1-20,-200,0,200,-100,-100,-100,67,38,16,0.00,40.00,22,9,37,0.00
2013-1-21,-200,0,200,-100,-100,-100,59,40,34,0.00,40.00,8,2,16,0.00
2013-1-22,-200,0,200,-100,-100,-100,56,38,27,0.00,40.00,15,9,29,0.00
2013-1-23,-200,0,200,-100,-100,-100,52,41,32,0.00,40.00,13,5,25,0.00
2013-1-24,-200,0,200,-100,-100,-100,84,47,21,0.00,40.00,10,4,25,0.00
2013-1-25,-200,0,200,-100,-100,-100,94,55,36,0.00,40.00,9,3,16,0.00
2013-1-26,-200,0,200,-100,-100,-100,95,63,28,0.00,40.00,10,3,22,0.00
2013-1-27,-200,0,200,-100,-100,-100,73,67,48,0.00,40.00,6,3,10,0.00
2013-1-28,-200,0,200,-100,-100,-100,98,92,54,0.00,40.00,8,4,13,0.00
2013-1-29,-200,0,200,-100,-100,-100,98,89,47,0.00,40.00,9,4,15,0.00
2013-1-30,-200,0,200,-100,-100,-100,98,93,67,0.00,40.00,12,4,31,0.00
2013-1-31,-200,0,200,-100,-100,-100,96,37,22,0.00,40.00,24,15,51,0.00
2013-2-1,-200,0,200,-100,-100,-100,80,44,22,0.00,40.00,12,7,25,0.00
2013-2-2,-200,0,200,-100,-100,-100,90,48,26,0.00,40.00,13,5,24,0.00
2013-2-3,-200,0,200,-100,-100,-100,95,76,48,0.00,40.00,8,2,13,0.00
2013-2-4,-200,0,200,-100,-100,-100,77,46,28,0.00,40.00,14,7,30,0.00
2013-2-5,-200,0,200,-100,-100,-100,94,84,42,0.00,40.00,4,2,8,0.00
2013-2-6,-200,0,200,-100,-100,-100,98,63,31,0.00,40.00,10,4,22,0.00
2013-2-7,-200,0,200,-100,-100,-100,50,38,29,0.00,40.00,6,2,13,0.00
2013-2-8,-200,0,200,-100,-100,-100,98,85,50,0.00,40.00,9,4,23,0.00
2013-2-9,-200,0,200,-100,-100,-100,98,63,24,0.00,40.00,10,5,27,0.00
2013-2-10,-200,0,200,-100,-100,-100,75,45,18,0.00,40.00,6,2,13,0.00
2013-2-11,-200,0,200,-100,-100,-100,98,89,61,0.00,40.00,7,2,13,0.00
2013-2-12,-200,0,200,-100,-100,-100,98,52,32,0.00,40.00,17,7,32,0.00
2013-2-13,-200,0,200,-100,-100,-100,93,59,36,0.00,40.00,7,2,11,0.00
2013-2-14,-200,0,200,-100,-100,-100,98,64,26,0.00,40.00,6,2,14,0.00
2013-2-15,-200,0,200,-100,-100,-100,92,51,24,0.00,40.00,13,4,21,0.00
2013-2-16,-200,0,200,-100,-100,-100,97,65,35,0.00,40.00,5,1,13,0.00
2013-2-17,-200,0,200,-100,-100,-100,40,31,20,0.00,40.00,19,7,38,0.00
2013-2-18,-200,0,200,-100,-100,-100,41,32,21,0.00,40.00,14,8,32,0.00
2013-2-19,-200,0,200,-100,-100,-100,97,67,29,0.00,40.00,14,4,28,0.00
2013-2-20,-200,0,200,-100,-100,-100,58,40,28,0.00,40.00,17,11,32,0.00
2013-2-21,-200,0,200,-100,-100,-100,53,38,28,0.00,40.00,15,7,33,0.00
2013-2-22,-200,0,200,-100,-100,-100,82,62,44,0.00,40.00,7,2,13,0.00
2013-2-23,-200,0,200,-100,-100,-100,98,97,83,0.00,40.00,6,3,17,0.00
2013-2-24,-200,0,200,-100,-100,-100,98,74,39,0.00,40.00,11,4,27,0.00
2013-2-25,-200,0,200,-100,-100,-100,80,54,34,0.00,40.00,5,2,12,0.00
2013-2-26,-200,0,200,-100,-100,-100,94,68,50,0.00,40.00,12,5,24,0.00
2013-2-27,-200,0,200,-100,-100,-100,98,90,69,0.00,40.00,13,6,29,0.00
2013-2-28,-200,0,200,-100,-100,-100,83,62,36,0.00,40.00,8,3,18,0.00
2013-3-1,-200,0,200,-100,-100,-100,94,61,33,0.00,40.00,7,4,15,0.00
2013-3-2,-200,0,200,-100,-100,-100,74,54,39,0.00,40.00,9,3,16,0.00
2013-3-3,-200,0,200,-100,-100,-100,69,50,34,0.00,40.00,15,5,23,0.00
2013-3-4,-200,0,200,-100,-100,-100,61,45,29,0.00,40.00,13,6,27,0.00
2013-3-5,-200,0,200,-100,-100,-100,63,44,26,0.00,40.00,8,3,20,0.00
2013-3-6,-200,0,200,-100,-100,-100,87,70,53,0.00,40.00,17,7,46,0.00
2013-3-7,-200,0,200,-100,-100,-100,98,72,51,0.00,40.00,6,3,20,0.00
2013-3-8,-200,0,200,-100,-100,-100,98,93,64,0.00,40.00,4,2,12,0.00
2013-3-9,-200,0,200,-100,-100,-100,79,38,9,0.00,40.00,5,2,11,0.00
2013-3-10,-200,0,200,-100,-100,-100,96,69,19,0.00,40.00,10,3,15,0.00
2013-3-11,-200,0,200,-100,-100,-100,97,85,42,0.00,40.00,8,4,15,0.00
2013-3-12,-200,0,200,-100,-100,-100,97,92,74,0.00,40.00,14,7,29,0.00
2013-3-13,-200,0,200,-100,-100,-100,90,56,22,0.00,40.00,12,5,29,0.00
2013-3-14,-200,0,200,-100,-100,-100,49,33,18,0.00,40.00,15,8,35,0.00
2013-3-15,-200,0,200,-100,-100,-100,45,36,24,0.00,40.00,13,6,26,0.00
2013-3-16,-200,0,200,-100,-100,-100,96,67,42,0.00,40.00,4,2,12,0.00
2013-3-17,-200,0,200,-100,-100,-100,96,58,28,0.00,40.00,8,2,17,0.00
2013-3-18,-200,0,200,-100,-100,-100,98,68,38,0.00,40.00,7,3,18,0.00
2013-3-19,-200,0,200,-100,-100,-100,98,82,36,0.00,40.00,14,4,25,0.00
2013-3-20,-200,0,200,-100,-100,-100,48,33,20,0.00,40.00,13,7,32,0.00
2013-3-21,-200,0,200,-100,-100,-100,93,44,20,0.00,40.00,8,3,19,0.00
2013-3-22,-200,0,200,-100,-100,-100,61,40,26,0.00,40.00,17,7,28,0.00
2013-3-23,-200,0,200,-100,-100,-100,57,39,24,0.00,40.00,15,7,28,0.00
2013-3-24,-200,0,200,-100,-100,-100,57,38,24,0.00,40.00,7,3,14,0.00
2013-3-25,-200,0,200,-100,-100,-100,51,49,45,0.00,40.00,1,0,4,0.00
2013-3-26,-200,0,200,-100,-100,-100,97,60,23,0.00,40.00,10,3,19,0.00
2013-3-27,-200,0,200,-100,-100,-100,77,48,19,0.00,40.00,12,4,22,0.00
2013-3-28,-200,0,200,-100,-100,-100,84,52,30,0.00,40.00,8,3,18,0.00
2013-3-29,-200,0,200,-100,-100,-100,72,45,21,0.00,40.00,9,3,19,0.00
2013-3-30,-200,0,200,-100,-100,-100,73,39,13,0.00,40.00,10,4,20,0.00
2013-3-31,-200,0,200,-100,-100,-100,98,53,22,0.00,40.00,15,5,25,0.00
2013-4-1,-200,0,200,-100,-100,-100,98,66,24,0.00,40.00,17,6,33,0.00
2013-4-2,-200,0,200,-100,-100,-100,40,28,18,0.00,40.00,16,7,33,0.00
2013-4-3,-200,0,200,-100,-100,-100,36,26,17,0.00,40.00,14,6,30,0.00
2013-4-4,-200,0,200,-100,-100,-100,48,30,19,0.00,40.00,9,4,23,0.00
2013-4-5,-200,0,200,-100,-100,-100,60,31,9,0.00,40.00,12,4,24,0.00
2013-4-6,-200,0,200,-100,-100,-100,45,29,12,0.00,40.00,10,3,20,0.00
2013-4-7,-200,0,200,-100,-100,-100,75,49,21,0.00,40.00,13,6,27,0.00
2013-4-8,-200,0,200,-100,-100,-100,77,48,15,0.00,40.00,10,4,18,0.00
2013-4-9,-200,0,200,-100,-100,-100,78,41,12,0.00,40.00,16,5,35,0.00
2013-4-10,-200,0,200,-100,-100,-100,95,53,26,0.00,40.00,12,4,22,0.00
2013-4-11,-200,0,200,-100,-100,-100,96,85,52,0.00,40.00,12,4,26,0.00
2013-4-12,-200,0,200,-100,-100,-100,98,92,63,0.00,40.00,9,5,21,0.00
2013-4-13,-200,0,200,-100,-100,-100,98,61,25,0.00,40.00,12,3,23,0.00
2013-4-14,-200,0,200,-100,-100,-100,60,34,20,0.00,40.00,16,4,23,0.00
2013-4-15,-200,0,200,-100,-100,-100,85,40,28,0.00,40.00,9,4,19,0.00
2013-4-16,-200,0,200,-100,-100,-100,94,67,40,0.00,40.00,10,5,22,0.00
2013-4-17,-200,0,200,-100,-100,-100,93,48,10,0.00,40.00,8,3,16,0.00
2013-4-18,-200,0,200,-100,-100,-100,96,73,44,0.00,40.00,10,5,21,0.00
2013-4-19,-200,0,200,-100,-100,-100,97,80,47,0.00,40.00,16,7,28,0.00
2013-4-20,-200,0,200,-100,-100,-100,96,51,19,0.00,40.00,20,9,33,0.00
2013-4-21,-200,0,200,-100,-100,-100,53,31,16,0.00,40.00,6,2,14,0.00
2013-4-22,-200,0,200,-100,-100,-100,71,50,34,0.00,40.00,12,5,24,0.00
2013-4-23,-200,0,200,-100,-100,-100,81,69,54,0.00,40.00,7,3,13,0.00
2013-4-24,-200,0,200,-100,-100,-100,96,65,32,0.00,40.00,12,5,23,0.00
2013-4-25,-200,0,200,-100,-100,-100,82,34,12,0.00,40.00,15,5,28,0.00
2013-4-26,-200,0,200,-100,-100,-100,43,27,14,0.00,40.00,7,3,17,0.00
2013-4-27,-200,0,200,-100,-100,-100,57,31,14,0.00,40.00,9,3,16,0.00
2013-4-28,-200,0,200,-100,-100,-100,66,36,22,0.00,40.00,15,4,21,0.00
2013-4-29,-200,0,200,-100,-100,-100,96,85,43,0.00,40.00,11,4,18,0.00
2013-4-30,-200,0,200,-100,-100,-100,97,47,16,0.00,40.00,9,4,20,0.00
2013-5-1,-200,0,200,-100,-100,-100,80,41,16,0.00,40.00,11,3,23,0.00
2013-5-2,-200,0,200,-100,-100,-100,95,53,20,0.00,40.00,7,2,14,0.00
2013-5-3,-200,0,200,-100,-100,-100,87,48,26,0.00,40.00,9,3,18,0.00
2013-5-4,-200,0,200,-100,-100,-100,98,63,24,0.00,40.00,12,4,19,0.00
2013-5-5,-200,0,200,-100,-100,-100,96,66,29,0.00,40.00,8,3,17,0.00
2013-5-6,-200,0,200,-100,-100,-100,97,74,44,0.00,40.00,10,2,16,0.00
2013-5-7,-200,0,200,-100,-100,-100,96,79,45,0.00,40.00,9,2,19,0.00
2013-5-8,-200,0,200,-100,-100,-100,97,94,84,0.00,40.00,8,2,15,0.00
2013-5-9,-200,0,200,-100,-100,-100,96,84,48,0.00,40.00,4,1,11,0.00
2013-5-10,-200,0,200,-100,-100,-100,96,63,26,0.00,40.00,7,3,14,0.00
2013-5-11,-200,0,200,-100,-100,-100,96,92,59,0.00,40.00,10,3,23,0.00
2013-5-12,-200,0,200,-100,-100,-100,96,53,16,0.00,40.00,12,6,31,0.00
2013-5-13,-200,0,200,-100,-100,-100,61,39,23,0.00,40.00,12,5,24,0.00
2013-5-14,-200,0,200,-100,-100,-100,90,43,10,0.00,40.00,8,3,20,0.00
2013-5-15,-200,0,200,-100,-100,-100,69,47,28,0.00,40.00,9,3,18,0.00
2013-5-16,-200,0,200,-100,-100,-100,92,54,24,0.00,40.00,8,2,15,0.00
2013-5-17,-200,0,200,-100,-100,-100,49,34,20,0.00,40.00,5,2,15,0.00
2013-5-18,-200,0,200,-100,-100,-100,91,70,37,0.00,40.00,6,1,11,0.00
2013-5-19,-200,0,200,-100,-100,-100,97,96,91,0.00,40.00,8,3,18,0.00
2013-5-20,-200,0,200,-100,-100,-100,97,82,54,0.00,40.00,8,2,15,0.00
2013-5-21,-200,0,200,-100,-100,-100,96,72,43,0.00,40.00,9,3,18,0.00
2013-5-22,-200,0,200,-100,-100,-100,96,84,60,0.00,40.00,7,2,16,0.00
2013-5-23,-200,0,200,-100,-100,-100,94,90,64,0.00,40.00,10,4,25,0.00
2013-5-24,-200,0,200,-100,-100,-100,96,93,82,0.00,40.00,7,3,17,0.00
2013-5-25,-200,0,200,-100,-100,-100,96,70,39,0.00,40.00,14,5,27,0.00
2013-5-26,-200,0,200,-100,-100,-100,69,40,18,0.00,40.00,14,5,28,0.00
2013-5-27,-200,0,200,-100,-100,-100,63,36,18,0.00,40.00,11,3,21,0.00
2013-5-28,-200,0,200,-100,-100,-100,96,72,36,0.00,40.00,4,1,11,0.00
2013-5-29,-200,0,200,-100,-100,-100,97,74,37,0.00,40.00,6,2,15,0.00
2013-5-30,-200,0,200,-100,-100,-100,87,51,27,0.00,40.00,9,3,16,0.00
2013-5-31,-200,0,200,-100,-100,-100,89,52,25,0.00,40.00,7,3,16,0.00
2013-6-1,-200,0,200,-100,-100,-100,92,57,33,0.00,40.00,9,3,18,0.00
2013-6-2,-200,0,200,-100,-100,-100,91,65,41,0.00,40.00,9,4,19,0.00
2013-6-3,-200,0,200,-100,-100,-100,96,79,43,0.00,40.00,7,2,16,0.00
2013-6-4,-200,0,200,-100,-100,-100,63,40,22,0.00,40.00,8,2,21,0.00
2013-6-5,-200,0,200,-100,-100,-100,91,46,28,0.00,40.00,9,2,17,0.00
2013-6-6,-200,0,200,-100,-100,-100,96,83,41,0.00,40.00,10,3,21,0.00
2013-6-7,-200,0,200,-100,-100,-100,97,97,96,0.00,40.00,5,2,18,0.00
2013-6-8,-200,0,200,-100,-100,-100,97,80,52,0.00,40.00,7,3,15,0.00
2013-6-9,-200,0,200,-100,-100,-100,96,60,30,0.00,40.00,8,2,16,0.00
2013-6-10,-200,0,200,-100,-100,-100,96,90,62,0.00,40.00,5,2,18,0.00
2013-6-11,-200,0,200,-100,-100,-100,97,79,53,0.00,40.00,9,4,29,0.00
2013-6-12,-200,0,200,-100,-100,-100,88,59,34,0.00,40.00,9,4,26,0.00
2013-6-13,-200,0,200,-100,-100,-100,96,89,66,0.00,40.00,9,2,21,0.00
2013-6-14,-200,0,200,-100,-100,-100,96,84,42,0.00,40.00,5,2,14,0.00
2013-6-15,-200,0,200,-100,-100,-100,96,60,25,0.00,40.00,9,2,18,0.00
2013-6-16,-200,0,200,-100,-100,-100,84,57,29,0.00,40.00,11,3,27,0.00
2013-6-17,-200,0,200,-100,-100,-100,94,68,37,0.00,40.00,8,2,15,0.00
2013-6-18,-200,0,200,-100,-100,-100,96,81,41,0.00,40.00,11,2,18,0.00
2013-6-19,-200,0,200,-100,-100,-100,97,59,22,0.00,40.00,5,1,11,0.00
2013-6-20,-200,0,200,-100,-100,-100,88,66,30,0.00,40.00,5,2,13,0.00
2013-6-22,-200,0,200,-100,-100,-100,64,45,34,0.00,40.00,6,3,13,0.00
2013-6-23,-200,0,200,-100,-100,-100,94,69,38,0.00,40.00,8,3,22,0.00
2013-6-24,-200,0,200,-100,-100,-100,96,69,28,0.00,40.00,10,3,19,0.00
2013-6-25,-200,0,200,-100,-100,-100,94,71,32,0.00,40.00,13,2,20,0.00
2013-6-26,-200,0,200,-100,-100,-100,95,69,40,0.00,40.00,9,3,16,0.00
2013-6-27,-200,0,200,-100,-100,-100,96,77,46,0.00,40.00,9,2,22,0.00
2013-6-28,-200,0,200,-100,-100,-100,96,76,43,0.00,40.00,7,2,17,0.00
2013-6-29,-200,0,200,-100,-100,-100,95,65,34,0.00,40.00,6,2,16,0.00
2013-6-30,-200,0,200,-100,-100,-100,96,87,62,0.00,40.00,6,2,14,0.00
2013-7-1,-200,0,200,-100,-100,-100,96,95,94,0.00,40.00,8,3,19,0.00
2013-7-2,-200,0,200,-100,-100,-100,96,89,62,0.00,40.00,7,3,21,0.00
2013-7-3,-200,0,200,-100,-100,-100,94,86,58,0.00,40.00,5,2,11,0.00
2013-7-4,-200,0,200,-100,-100,-100,96,75,50,0.00,40.00,6,2,16,0.00
2013-7-5,-200,0,200,-100,-100,-100,95,69,43,0.00,40.00,6,2,13,0.00
2013-7-6,-200,0,200,-100,-100,-100,94,67,38,0.00,40.00,9,3,17,0.00
2013-7-7,-200,0,200,-100,-100,-100,92,66,44,0.00,40.00,14,3,38,0.00
2013-7-8,-200,0,200,-100,-100,-100,94,72,37,0.00,40.00,8,4,17,0.00
2013-7-9,-200,0,200,-100,-100,-100,94,78,49,0.00,40.00,5,2,10,0.00
2013-7-12,-200,0,200,-100,-100,-100,96,84,61,0.00,40.00,5,2,17,0.00
2013-7-13,-200,0,200,-100,-100,-100,96,96,94,0.00,40.00,4,1,14,0.00
2013-7-14,-200,0,200,-100,-100,-100,96,74,43,0.00,40.00,7,2,16,0.00
2013-7-15,-200,0,200,-100,-100,-100,92,66,36,0.00,40.00,7,3,13,0.00
2013-7-16,-200,0,200,-100,-100,-100,93,48,31,0.00,40.00,4,1,9,0.00
2013-7-17,-200,0,200,-100,-100,-100,94,60,30,0.00,40.00,5,2,10,0.00
2013-7-18,-200,0,200,-100,-100,-100,83,56,32,0.00,40.00,6,2,15,0.00
2013-7-19,-200,0,200,-100,-100,-100,93,66,36,0.00,40.00,7,2,18,0.00
2013-7-20,-200,0,200,-100,-100,-100,92,69,43,0.00,40.00,9,3,21,0.00
2013-7-21,-200,0,200,-100,-100,-100,95,65,32,0.00,40.00,5,2,14,0.00
2013-7-22,-200,0,200,-100,-100,-100,96,82,51,0.00,40.00,7,2,14,0.00
2013-7-23,-200,0,200,-100,-100,-100,96,83,55,0.00,40.00,7,3,15,0.00
2013-7-24,-200,0,200,-100,-100,-100,93,69,44,0.00,40.00,7,2,14,0.00
2013-7-25,-200,0,200,-100,-100,-100,88,69,57,0.00,40.00,4,1,12,0.00
2013-7-26,-200,0,200,-100,-100,-100,90,64,35,0.00,40.00,5,1,14,0.00
2013-7-27,-200,0,200,-100,-100,-100,96,67,32,0.00,40.00,8,2,19,0.00
2013-7-28,-200,0,200,-100,-100,-100,96,87,58,0.00,40.00,8,2,24,0.00
2013-7-29,-200,0,200,-100,-100,-100,96,84,42,0.00,40.00,9,2,17,0.00